{"data":{"norad_id":58595,"epoch":"2026-09-20T22:50:25.035360Z","epoch_age_seconds":110696,"freshness":"FRESH","line1":"1 58595U 23200G   26263.95167865  .00001100  00000+0  49479-4 0  9993","line2":"2 58595  43.0007 146.1171 0001317 267.3321  92.7380 15.27576096153472","mean_motion":15.27576096,"eccentricity":0.0001317,"inclination_deg":43.0007,"raan_deg":146.1171,"arg_perigee_deg":267.3321,"mean_anomaly_deg":92.738,"bstar":4.9479e-5,"rev_number":15347,"period_min":94.266989629563,"perigee_km":482.15716629658,"apogee_km":483.96440579343,"semimajor_km":6861.197786045,"source":"CELESTRAK","updated_at":"2026-09-21T09:00:33.918033Z"}}